Regional Weather Roundup
Issued by NWS

Home | Current Version | Previous Version | Graphics & Text | Print | Product List | Glossary On
Versions: 1 2 3 4 5 6 7 8 9 10 11 12 13 14 15 16 17 18 19 20 21 22 23 24 25 26 27 28 29 30 31 32 33 34 35 36 37 38 39 40 41 42 43 44 45 46 47 48 49 50
000
ASUS43 KBIS 111510
RWRND

NORTH DAKOTA REGIONAL WEATHER ROUNDUP
NATIONAL WEATHER SERVICE BISMARCK ND
900 AM CST MON DEC 11 2017

NOTE: "FAIR" INDICATES FEW OR NO CLOUDS BELOW 12,000 FEET WITH NO
SIGNIFICANT WEATHER AND/OR OBSTRUCTIONS TO VISIBILITY.


NDZ001>003-009>011-017-111600-
NORTHWEST NORTH DAKOTA

CITY           SKY/WX    TMP DP  RH WIND       PRES   REMARKS
WILLISTON      CLOUDY    36  30  79 NW12      30.26R
MINOT          CLOUDY    35  27  72 NW18      30.15R
MINOT AFB      CLOUDY    34  26  72 N18G28    30.14R
$$

NDZ018>021-031>035-040>046-111600-
SOUTHWEST NORTH DAKOTA

CITY           SKY/WX    TMP DP  RH WIND       PRES   REMARKS
BISMARCK       CLOUDY    38  30  73 NW21G29   30.14R
DICKINSON      CLOUDY    35  30  82 NW21G29   30.19R
GARRISON         N/A     35  28  75 NW25G31   30.14R
HETTINGER ARPT MOCLDY    35  27  72 NW24G33   30.20R
$$

NDZ004>008-012>016-024-026-027-054-111600-
NORTHEAST NORTH DAKOTA

CITY           SKY/WX    TMP DP  RH WIND       PRES   REMARKS
GRAND FORKS    BLWGSNOW  24  23  96 N28G36    30.03R VSB 3/4 WCI   7
GRND FRKS AFB  CLOUDY    24  19  82 N29G40    30.05R WCI   7
DEVILS LAKE    CLOUDY    22  19  89 N25G33    30.09R WCI   5
$$

NDZ022-023-025-028>030-036>039-047>053-111600-
SOUTHEAST NORTH DAKOTA

CITY           SKY/WX    TMP DP  RH WIND       PRES   REMARKS
FARGO          CLOUDY    28  25  88 N31G47    29.96R WCI  12
JAMESTOWN      CLOUDY    33  29  85 N28G40    30.02R WCI  20
$$





USA.gov is the U.S. government's official web portal to all federal, state and local government web resources and services.